User: anonymous   Login
Location: Unspecified
(0.0000°N, 0.0000°E)
Time: 10:26:35
(UTC+01:00)
Language:

ATLAS 3B CENTAUR R/B - Orbit

View from above orbital plane
View from above orbital plane
View from above satellite
View from above satellite

Ground track
Ground track

The orbit data is extracted from the following two-line orbital elements,

1 28118U 03057B   14330.63547314  .00091062  00000-0  19990-2 0  8996
2 28118 028.1533 161.1671 3773850 273.7467 090.4134 07.94309617208317
Epoch (UTC): 26 November 2014 15:15:04
Eccentricity: 0.3773850
inclination: 28.1533°
perigee height: 228 km
apogee height: 8237 km
right ascension of ascending node: 161.1671°
argument of perigee: 273.7467°
revolutions per day: 7.94309617
mean anomaly at epoch: 90.4134°
orbit number at epoch: 20831

The dashed part of the orbit path shows where the satellite is in the earth's shadow,  

DLR